Regional Weather Roundup
Issued by NWS Columbia, SC

Home | Current Version | Previous Version | Text Only | Print | Product List | Glossary On
Versions: 1 2 3 4 5 6 7 8 9 10 11 12 13 14 15 16 17 18 19 20 21 22 23 24 25 26 27 28 29 30 31 32 33 34 35 36 37 38 39 40 41 42 43 44 45 46 47 48 49 50
000
ASUS42 KCAE 280510
RWRCAE
REGIONAL WEATHER ROUNDUP
NATIONAL WEATHER SERVICE COLUMBIA SC
1200 AM EST SUN DEC 28 2014

NOTE: "FAIR" INDICATES FEW OR NO CLOUDS BELOW 12,000 FEET WITH NO
SIGNIFICANT WEATHER AND/OR OBSTRUCTIONS TO VISIBILITY.

NOT ALL STATIONS ARE QUALITY CONTROLLED BY THE NATIONAL
WEATHER SERVICE. USE DATA WITH CAUTION...ESPECIALLY
DEWPOINT OBSERVATIONS.

SCZ001>056-GAZ040-063>065-077-280600-
...UPSTATE SOUTH CAROLINA...

CITY           SKY/WX    TMP DP  RH WIND       PRES   REMARKS
ANDERSON       CLOUDY    50  43  77 CALM      30.22R
LIBERTY        FAIR      46  32  57 MISG      30.20F
SPARTANBURG    FAIR      54  39  58 SW6       30.19F
CLEMSON        CLOUDY    56  38  50 SW3       30.21S
GREENVILLE     MOCLDY    52  39  61 W3        30.20F
GREENWOOD      LGT RAIN  50  44  80 CALM      30.22S
GREER          MOCLDY    51  42  71 W6        30.19S
ROCK HILL      CLOUDY    49  40  71 SW3       30.19F
CHESTER        FAIR      54  41  62 CALM      30.20S
LAURENS        MOCLDY    52  46  82 SW5       30.20S


...CENTRAL SOUTH CAROLINA...

CITY           SKY/WX    TMP DP  RH WIND       PRES   REMARKS
COLUMBIA APT   CLOUDY    51  45  79 CALM      30.20F
COLUMBIA OWENS CLOUDY    51  46  83 CALM      30.21F
DARLINGTON     CLOUDY    48  45  87 S3        30.21F
FLORENCE       MOCLDY    52  47  83 SW5       30.21F
MCENTIRE ANGB  CLOUDY    49  47  93 SE2       30.20F
ORANGEBURG     CLOUDY    52  49  89 CALM      30.21F
SUMTER SHAW    CLOUDY    51  48  88 CALM      30.19F
NEWBERRY       FAIR      48  46  93 CALM      30.22F
AIKEN          LGT RAIN  54  50  87 S8        30.23S
BARNWELL         N/A     54  54 100 CALM      30.21F
MANNING        FAIR      52 N/A N/A CALM      30.21F
CAMDEN         FAIR      46  43  87 CALM      30.21F
LANCASTER      FAIR      50  43  76 CALM      30.20F
WINNSBORO      FAIR      52  43  71 S6        30.19F


...EASTERN AND COASTAL SOUTH CAROLINA...

CITY           SKY/WX    TMP DP  RH WIND       PRES   REMARKS
MYRTLE BEACH   CLOUDY    52  46  82 CALM      30.22F
N MYRTLE BCH   MOCLDY    50  47  89 CALM      30.21F
CONWAY         FAIR      46  46 100 CALM      30.21F
MARION         FAIR      52  45  76 CALM      30.21F
HARTSVILLE     FAIR      52  45  76 CALM      30.20F
FLORENCE       MOCLDY    52  47  83 SW5       30.21F
DARLINGTON     CLOUDY    48  45  87 S3        30.21F
CHARLESTON APT CLOUDY    54  49  83 CALM      30.21F
MOUNT PLEASANT FAIR      52  52 100 CALM      30.21F
WALTERBORO     CLOUDY    54 N/A N/A CALM      30.22F
BEAUFORT       MOCLDY    51  48  89 CALM      30.22F


...EASTERN GEORGIA...

CITY           SKY/WX    TMP DP  RH WIND       PRES   REMARKS
AUGUSTA BUSH F LGT RAIN  51  50  96 SE5       30.19F
AUGUSTA DANIEL LGT RAIN  56  49  77 SE5       30.20F
THOMSON        CLOUDY    54  54  99 CALM      30.26R
WASHINGTON     FAIR      55  55 100 W3        30.21S
CLAXTON        FAIR      55  54  94 CALM      30.22S
SYLVANIA       CLOUDY    57  55  91 CALM      30.22S
STATESBORO     CLOUDY    55  55 100 SE3       30.21F
SAVANNAH       PTCLDY    51  48  89 CALM      30.22F


...SOUTHERN NORTH CAROLINA...

CITY           SKY/WX    TMP DP  RH WIND       PRES   REMARKS
CHARLOTTE      CLOUDY    50  38  63 SW3       30.19F
MONROE         CLOUDY    52  40  63 SW5       30.18F
WADESBORO      CLOUDY    49  42  77 CALM      30.19F
ROCKINGHAM     CLOUDY    52  43  72 S6        30.18F
RUTHERFORDTON  MOCLDY    52  37  54 S8        30.18F
ASHEVILLE      CLOUDY    50  34  54 S13       30.17F

$$


USA.gov is the U.S. government's official web portal to all federal, state and local government web resources and services.